GW3175 Weather Reports


time (UTC)temp
C
wind
direction
speed
KPH
gust
KPH
rain 1hr
cm
rain 24hr
cm
rain mn
cm
humidity
%
barometer
mb
20260507134426 12 176 6.4 9.7 0.00 0.41 0.41 73 1003.3
20260507133922 12 146 3.2 9.7 0.00 0.41 0.41 73 1003.3
20260507133418 12 147 0.0 11.3 0.00 0.41 0.41 72 1003.3
20260507132911 12 17 4.8 9.7 0.00 0.41 0.41 74 1003.5
20260507132407 12 200 11.3 14.5 0.00 0.41 0.41 76 1003.4
20260507131906 11 8 3.2 11.3 0.00 0.41 0.41 75 1003.8
20260507131401 12 297 3.2 4.8 0.00 0.41 0.41 76 1003.8
20260507130858 12 329 1.6 6.4 0.00 0.41 0.41 77 1003.8
20260507130355 11 347 3.2 11.3 0.00 0.41 0.41 80 1003.5
20260507125854 11 4 1.6 11.3 0.00 0.41 0.41 78 1003.6
20260507125351 11 38 14.5 14.5 0.00 0.41 0.41 80 1003.6
20260507124848 11 336 11.3 17.7 0.00 0.41 0.41 81 1003.7
20260507124344 11 18 6.4 9.7 0.00 0.41 0.41 82 1003.5
20260507123843 10 355 8.0 14.5 0.00 0.41 0.41 81 1003.9
20260507123340 10 14 3.2 9.7 0.00 0.41 0.41 85 1003.6
20260507122836 10 6 3.2 6.4 0.00 0.41 0.41 86 1003.5
20260507122331 10 359 3.2 4.8 0.00 0.41 0.41 86 1003.5
20260507121828 10 358 0.0 8.0 0.00 0.41 0.41 87 1002.9
20260507121324 10 353 0.0 8.0 0.00 0.41 0.41 88 1003.2
20260507120820 10 293 1.6 9.7 0.00 0.41 0.41 86 1003.6
20260507120317 9 200 1.6 4.8 0.00 0.41 0.41 94 1003.5
20260507115813 8 6 4.8 4.8 0.00 0.41 0.41 92 1003.3
20260507115309 8 186 3.2 6.4 0.00 0.41 0.41 92 1003.7
20260507114805 8 55 0.0 6.4 0.00 0.41 0.41 94 1003.4
20260507114302 9 12 4.8 9.7 0.00 0.41 0.41 92 1003.6
20260507113759 10 87 3.2 9.7 0.00 0.41 0.41 91 1004.0
20260507113256 8 235 0.0 3.2 0.00 0.41 0.41 95 1004.0
20260507112754 7 25 1.6 4.8 0.00 0.41 0.41 95 1003.5
20260507112251 7 26 3.2 4.8 0.00 0.41 0.41 95 1003.7
20260507111749 7 107 3.2 4.8 0.00 0.41 0.41 95 1004.7
20260507111245 7 127 3.2 4.8 0.00 0.41 0.41 95 1004.5
20260507110741 7 163 3.2 6.4 0.00 0.41 0.41 93 1003.9
20260507110237 7 132 3.2 4.8 0.00 0.41 0.41 94 1004.4
20260507105734 7 31 1.6 4.8 0.00 0.41 0.41 95 1004.3
20260507105230 7 138 3.2 4.8 0.00 0.41 0.41 95 1004.2
20260507104728 7 213 0.0 4.8 0.00 0.41 0.41 95 1004.1
20260507104224 7 181 0.0 4.8 0.00 0.41 0.41 95 1003.9
20260507103720 7 295 1.6 9.7 0.00 0.41 0.41 95 1003.9
20260507103217 7 238 1.6 8.0 0.00 0.41 0.41 95 1004.2
20260507102713 7 325 0.0 4.8 0.00 0.41 0.41 96 1003.8
20260507102210 7 49 0.0 4.8 0.00 0.41 0.41 95 1003.4
20260507101706 7 52 4.8 6.4 0.00 0.41 0.41 94 1003.1
20260507101201 7 89 3.2 4.8 0.00 0.41 0.41 95 1003.6
20260507100659 7 203 12.9 16.1 0.00 0.41 0.41 96 1003.6
20260507100157 7 205 6.4 9.7 0.00 0.41 0.41 98 1003.3
20260507095655 7 214 1.6 6.4 0.00 0.41 0.41 97 1002.9
20260507095151 7 343 1.6 4.8 0.00 0.41 0.41 98 1002.9
20260507094648 7 18 4.8 4.8 0.00 0.41 0.41 99 1003.5
20260507094144 7 326 0.0 6.4 0.00 0.41 0.41 99 1003.4
20260507093642 7 347 3.2 4.8 0.00 0.41 0.41 99 1003.3
20260507093141 7 0 1.6 3.2 0.00 0.41 0.41 99 1003.4
20260507092637 7 346 0.0 6.4 0.00 0.41 0.41 98 1003.3
20260507092133 7 32 4.8 8.0 0.00 0.41 0.41 99 1003.1
20260507091630 7 47 3.2 6.4 0.00 0.41 0.41 99 1003.5
20260507091126 7 337 4.8 8.0 0.00 0.41 0.41 98 1003.5
20260507090622 7 42 1.6 4.8 0.00 0.41 0.41 98 1003.5
20260507090119 7 354 0.0 6.4 0.00 0.41 0.41 97 1003.5
20260507085616 7 26 3.2 4.8 0.00 0.41 0.41 98 1003.5
20260507085113 7 16 3.2 9.7 0.00 0.41 0.41 98 1003.8
20260507084610 7 4 4.8 4.8 0.00 0.41 0.41 99 1003.5
20260507084107 7 53 3.2 4.8 0.00 0.41 0.41 99 1003.4
20260507083603 7 124 4.8 8.0 0.00 0.41 0.41 99 1003.2
20260507083100 7 102 0.0 6.4 0.00 0.41 0.41 99 1003.2
20260507082556 7 359 4.8 6.4 0.00 0.41 0.41 99 1003.3
20260507082053 7 352 4.8 9.7 0.00 0.41 0.41 99 1003.0
20260507081548 7 285 3.2 6.4 0.00 0.41 0.41 99 1002.9
20260507081046 8 187 1.6 4.8 0.00 0.41 0.41 99 1002.9
20260507080541 8 259 0.0 4.8 0.00 0.41 0.41 99 1002.9
20260507080033 8 334 4.8 4.8 0.00 0.41 0.41 99 1002.7
20260507075528 8 358 3.2 9.7 0.00 0.41 0.41 99 1002.9
20260507075025 8 347 3.2 8.0 0.00 0.41 0.41 99 1003.0
20260507074521 8 222 0.0 3.2 0.00 0.41 0.41 99 1002.9
20260507074020 8 13 1.6 4.8 0.00 0.41 0.41 99 1002.6
20260507073516 8 13 4.8 9.7 0.00 0.41 0.41 99 1002.7
20260507073012 8 32 3.2 8.0 0.00 0.41 0.41 99 1002.7
20260507072510 8 351 3.2 9.7 0.00 0.41 0.41 99 1002.5
20260507072007 8 359 4.8 6.4 0.00 0.41 0.41 99 1002.5
20260507071504 8 25 1.6 3.2 0.00 0.41 0.41 99 1002.3
20260507071000 8 352 1.6 4.8 0.00 0.41 0.41 99 1002.4
20260507070458 8 19 3.2 4.8 0.00 0.41 0.41 99 1002.4
20260507065955 8 325 0.0 3.2 0.00 0.41 0.41 99 1002.5
20260507065451 8 268 0.0 8.0 0.05 0.41 0.41 99 1002.6
20260507064948 8 350 0.0 6.4 0.05 0.41 0.41 99 1002.6
20260507064447 8 359 0.0 4.8 0.05 0.41 0.41 99 1002.7
20260507063944 8 33 3.2 8.0 0.05 0.41 0.41 99 1002.3
20260507063441 8 327 0.0 1.6 0.05 0.38 0.38 99 1002.3
20260507062938 8 11 0.0 4.8 0.05 0.38 0.38 99 1002.2
20260507062435 8 5 1.6 3.2 0.00 0.38 0.38 99 1002.4
20260507061932 8 19 4.8 11.3 0.05 0.38 0.38 99 1002.4
20260507061430 8 73 4.8 6.4 0.13 0.38 0.38 99 1002.3
20260507060928 8 34 0.0 4.8 0.18 0.38 0.38 99 1002.2
20260507060425 8 339 4.8 8.0 0.23 0.36 0.36 99 1002.1
20260507055921 8 342 0.0 8.0 0.23 0.33 0.33 99 1002.0
20260507055416 9 315 0.0 4.8 0.30 0.30 0.30 99 1002.1
20260507054908 9 269 0.0 4.8 0.36 0.28 0.28 99 1002.3
20260507054404 9 12 1.6 11.3 0.36 0.25 0.25 99 1002.1
20260507053901 9 4 4.8 16.1 0.36 0.23 0.23 99 1001.8
20260507053359 9 336 6.4 17.7 0.36 0.18 0.18 99 1002.0
20260507052858 10 348 8.0 11.3 0.36 0.15 0.15 99 1002.3
20260507052354 10 358 14.5 22.5 0.30 0.13 0.13 99 1002.6
20260507051852 10 127 1.6 11.3 0.23 0.10 0.10 99 1003.1
20260507051349 10 36 3.2 9.7 0.18 0.05 0.05 99 1002.3
20260507050846 10 1 0.0 4.8 0.13 0.05 0.05 99 1002.1
20260507050342 10 204 0.0 4.8 0.05 0.03 0.03 99 1001.6
20260507045839 10 140 3.2 4.8 0.05 0.03 0.03 99 1001.5
20260507045335 10 206 1.6 4.8 0.05 0.03 0.03 99 1001.4
20260507044833 10 210 3.2 3.2 0.00 0.00 0.00 99 1001.6
20260507044329 10 180 1.6 8.0 0.05 0.00 0.00 99 1001.6
20260507043825 10 134 6.4 9.7 0.05 0.00 0.00 99 1001.5
20260507043322 10 115 6.4 8.0 0.00 0.00 0.00 99 1001.7
20260507042818 10 154 4.8 8.0 0.00 0.00 0.00 99 1002.0
20260507042314 11 11 1.6 6.4 0.00 0.00 0.00 99 1001.8
20260507041811 11 241 1.6 4.8 0.00 0.00 0.00 99 1001.5
20260507041308 10 244 1.6 6.4 0.00 0.00 0.00 99 1001.3
20260507040805 10 196 4.8 8.0 0.00 0.00 0.00 99 1001.2
20260507040301 10 48 4.8 12.9 0.00 0.00 0.00 99 1001.2
20260507035757 10 248 6.4 6.4 0.00 1.73 1.73 99 1001.2
20260507035252 10 212 3.2 9.7 0.00 1.73 1.73 99 1001.5
20260507034750 10 277 1.6 8.0 0.00 1.73 1.73 99 1001.5
20260507034247 10 322 4.8 11.3 0.00 1.73 1.73 99 1001.6
20260507033746 10 260 4.8 11.3 0.00 1.73 1.73 99 1001.7
20260507033242 10 219 8.0 17.7 0.00 1.73 1.73 99 1001.4
20260507032740 10 251 4.8 6.4 0.00 1.73 1.73 99 1001.5
20260507032236 10 290 4.8 11.3 0.00 1.73 1.73 99 1001.6
20260507031732 11 296 4.8 16.1 0.00 1.73 1.73 99 1001.6
20260507031229 11 247 4.8 9.7 0.00 1.73 1.73 99 1001.8
20260507030726 11 283 16.1 17.7 0.00 1.73 1.73 99 1001.6
20260507030223 11 277 4.8 14.5 0.00 1.73 1.73 99 1001.8
20260507025720 11 195 0.0 12.9 0.00 1.73 1.73 99 1001.8
20260507025217 11 28 0.0 12.9 0.00 1.73 1.73 99 1001.8
20260507024716 11 277 11.3 14.5 0.00 1.73 1.73 99 1002.1
20260507024213 11 278 1.6 11.3 0.00 1.73 1.73 99 1002.2
20260507023708 11 268 3.2 16.1 0.05 1.73 1.73 99 1002.1
20260507023205 11 206 9.7 14.5 0.00 1.70 1.70 99 1002.2
20260507022702 11 215 1.6 25.7 0.00 1.70 1.70 99 1002.4
20260507022158 11 213 9.7 12.9 0.00 1.70 1.70 99 1002.4
20260507021655 11 245 3.2 9.7 0.00 1.70 1.70 99 1002.7
20260507021150 11 216 4.8 22.5 0.00 1.70 1.70 99 1002.7
20260507020649 11 232 4.8 11.3 0.05 1.70 1.70 99 1002.9
20260507020144 11 245 4.8 17.7 0.13 1.70 1.70 99 1002.5
20260507015643 11 296 3.2 9.7 0.13 1.70 1.70 99 1002.8
20260507015140 11 181 3.2 8.0 0.13 1.70 1.70 99 1002.9
20260507014636 11 150 0.0 9.7 0.13 1.68 1.68 99 1002.9
20260507014132 11 275 4.8 6.4 0.13 1.68 1.68 99 1002.7
20260507013629 11 165 3.2 6.4 0.18 1.65 1.65 99 1003.1
20260507013126 11 175 4.8 19.3 0.23 1.65 1.65 99 1003.2
20260507012624 11 294 4.8 16.1 0.30 1.63 1.63 99 1003.2
20260507012119 11 220 6.4 12.9 0.36 1.60 1.60 99 1003.3
20260507011618 11 201 6.4 11.3 0.36 1.57 1.57 99 1003.3
20260507011113 11 228 17.7 17.7 0.30 1.55 1.55 99 1003.3
20260507010608 11 157 8.0 20.9 0.30 1.50 1.50 99 1003.5
20260507010104 11 185 3.2 12.9 0.36 1.47 1.47 99 1003.6
20260507005602 11 210 4.8 11.3 0.36 1.45 1.45 99 1003.5
20260507005058 11 103 1.6 38.6 0.30 1.42 1.42 99 1003.6
20260507004555 11 199 6.4 16.1 0.30 1.37 1.37 99 1003.4
20260507004052 11 207 4.8 22.5 0.23 1.35 1.35 99 1003.7
20260507003548 11 151 9.7 17.7 0.18 1.32 1.32 99 1003.5
20260507003043 11 75 4.8 12.9 0.05 1.32 1.32 99 1003.6
20260507002540 11 145 8.0 20.9 0.00 1.30 1.30 99 1003.5
20260507002036 11 43 6.4 12.9 0.00 1.30 1.30 99 1003.8
20260507001533 11 238 1.6 16.1 0.05 1.30 1.30 99 1004.0
20260507001031 11 148 9.7 14.5 0.00 1.30 1.30 99 1003.8
20260507000527 11 108 4.8 16.1 0.00 1.30 1.30 99 1003.9
20260507000023 11 255 1.6 17.7 0.05 1.30 1.30 99 1004.0
20260506235520 11 245 6.4 14.5 0.13 1.27 1.27 99 1004.1
20260506235015 11 259 1.6 17.7 0.36 1.27 1.27 99 1004.0
20260506234513 12 268 4.8 8.0 0.43 1.24 1.24 99 1004.0
20260506234010 12 143 8.0 25.7 0.43 1.22 1.22 99 1003.9
20260506233506 12 144 11.3 17.7 0.30 1.17 1.17 99 1003.9
20260506233004 12 162 6.4 14.5 0.30 1.14 1.14 99 1004.1
20260506232459 12 136 4.8 11.3 0.36 1.12 1.12 99 1004.2
20260506231955 12 324 9.7 14.5 0.48 1.07 1.07 99 1004.1
20260506231453 12 243 4.8 12.9 0.48 1.04 1.04 99 1003.8
20260506230950 12 226 6.4 20.9 0.53 0.99 0.99 99 1004.0
20260506230446 12 238 3.2 14.5 0.61 0.94 0.94 99 1004.0
20260506225943 12 268 6.4 12.9 0.61 0.89 0.89 99 1004.2
20260506225441 12 286 3.2 8.0 0.61 0.84 0.84 99 1003.9
20260506224937 12 257 3.2 14.5 0.66 0.79 0.79 99 1004.1
20260506224434 12 241 6.4 20.9 0.61 0.71 0.71 99 1004.2
20260506223931 12 272 9.7 9.7 0.48 0.66 0.66 99 1004.6
20260506223426 12 323 3.2 9.7 0.36 0.61 0.61 99 1004.5
20260506222924 12 58 3.2 16.1 0.23 0.56 0.56 99 1004.7
20260506222420 12 174 3.2 12.9 0.30 0.56 0.56 99 1004.7
20260506221917 12 247 6.4 20.9 0.30 0.51 0.51 99 1005.0
20260506221414 12 288 8.0 20.9 0.23 0.48 0.48 99 1004.8
20260506220912 12 132 11.3 19.3 0.36 0.46 0.46 99 1004.8
20260506220407 12 170 4.8 16.1 0.48 0.46 0.46 99 1004.8
20260506215904 12 94 6.4 11.3 0.36 0.41 0.41 99 1004.9
20260506215400 12 93 8.0 11.3 0.13 0.36 0.36 99 1004.7
20260506214856 12 266 4.8 16.1 0.13 0.36 0.36 99 1005.0
20260506214353 12 347 3.2 14.5 0.18 0.33 0.33 99 1005.1
20260506213851 12 205 3.2 12.9 0.18 0.33 0.33 99 1004.9
20260506213348 12 202 0.0 16.1 0.23 0.30 0.30 99 1005.1
20260506212846 12 228 8.0 20.9 0.18 0.28 0.28 99 1005.0
20260506212341 12 216 6.4 25.7 0.18 0.28 0.28 99 1005.2
20260506211836 12 249 4.8 12.9 0.18 0.25 0.25 99 1005.2
20260506211332 12 142 25.7 32.2 0.13 0.23 0.23 99 1005.8
20260506210830 12 189 12.9 20.9 0.05 0.20 0.20 99 1005.5
20260506210327 12 256 9.7 9.7 0.13 0.20 0.20 99 1005.4
20260506205824 12 237 8.0 17.7 0.18 0.18 0.18 99 1005.3
20260506205320 12 289 6.4 20.9 0.23 0.18 0.18 99 1005.2
20260506204817 12 239 4.8 19.3 0.23 0.15 0.15 99 1005.8
20260506204314 12 215 4.8 14.5 0.23 0.15 0.15 98 1005.5
20260506203812 12 260 6.4 24.1 0.23 0.13 0.13 98 1005.4
20260506203309 12 256 1.6 19.3 0.30 0.10 0.10 98 1005.5
20260506202806 12 235 6.4 17.7 0.23 0.08 0.08 98 1005.4
20260506202306 13 166 3.2 11.3 0.18 0.05 0.05 97 1005.4
20260506201759 13 178 8.0 9.7 0.18 0.03 0.03 97 1005.3
20260506201256 13 137 6.4 9.7 0.05 0.00 0.00 96 1005.4
20260506200753 13 209 3.2 16.1 0.00 0.00 0.00 95 1005.8
20260506200249 13 198 4.8 25.7 0.00 0.00 0.00 93 1005.8
20260506195746 13 267 4.8 29.0 0.00 0.00 0.00 90 1005.8
20260506195242 14 234 1.6 16.1 0.00 0.00 0.00 88 1005.7
20260506194740 14 172 8.0 9.7 0.00 0.00 0.00 88 1005.0
20260506194236 14 173 6.4 11.3 0.00 0.00 0.00 88 1005.7
20260506193734 14 24 4.8 20.9 0.00 0.00 0.00 88 1005.5
20260506193231 14 135 3.2 8.0 0.00 0.00 0.00 87 1005.4
20260506192727 14 74 9.7 11.3 0.00 0.00 0.00 87 1005.4
20260506192224 14 143 3.2 14.5 0.00 0.00 0.00 87 1005.2
20260506191720 14 195 3.2 8.0 0.00 0.00 0.00 87 1005.9
20260506191216 14 109 3.2 12.9 0.00 0.00 0.00 87 1005.9
20260506190714 14 204 8.0 19.3 0.00 0.00 0.00 87 1005.7
20260506190211 14 115 4.8 17.7 0.00 0.00 0.00 86 1005.7
20260506185708 15 138 1.6 19.3 0.00 0.00 0.00 85 1005.7
20260506185203 15 266 6.4 22.5 0.00 0.00 0.00 85 1005.8
20260506184656 15 51 6.4 25.7 0.00 0.00 0.00 83 1006.1
20260506184153 15 247 1.6 12.9 0.00 0.00 0.00 85 1006.0
20260506183650 15 65 6.4 9.7 0.00 0.00 0.00 83 1005.8
20260506183145 15 186 3.2 16.1 0.00 0.00 0.00 85 1005.9
20260506182643 14 284 3.2 9.7 0.00 0.00 0.00 88 1006.1
20260506182140 14 127 6.4 12.9 0.00 0.00 0.00 88 1005.9
20260506181638 14 261 4.8 14.5 0.00 0.00 0.00 87 1006.2
20260506181135 13 188 11.3 17.7 0.00 0.00 0.00 88 1006.4
20260506180632 14 248 9.7 27.4 0.00 0.00 0.00 87 1006.2
20260506180128 14 120 0.0 11.3 0.00 0.00 0.00 88 1006.3
20260506175624 13 224 19.3 20.9 0.00 0.00 0.00 87 1006.4
20260506175120 14 213 3.2 24.1 0.00 0.00 0.00 87 1006.5
20260506174620 14 125 16.1 22.5 0.00 0.00 0.00 86 1006.5
20260506174116 15 73 4.8 14.5 0.00 0.00 0.00 86 1006.4
20260506173614 15 124 8.0 16.1 0.00 0.00 0.00 86 1006.7
20260506173110 15 167 4.8 12.9 0.00 0.00 0.00 86 1006.7
20260506172608 15 163 8.0 20.9 0.00 0.00 0.00 86 1006.6
20260506172103 15 320 11.3 17.7 0.00 0.00 0.00 86 1006.8
20260506171601 15 221 6.4 12.9 0.00 0.00 0.00 86 1006.8
20260506171058 15 278 4.8 14.5 0.00 0.00 0.00 86 1006.8
20260506170555 14 222 6.4 17.7 0.00 0.00 0.00 88 1007.0
20260506170047 15 273 8.0 20.9 0.00 0.00 0.00 86 1007.3
20260506165545 15 165 9.7 19.3 0.00 0.00 0.00 87 1007.2
20260506165036 15 243 8.0 24.1 0.00 0.00 0.00 86 1007.4
20260506164533 15 345 4.8 20.9 0.00 0.00 0.00 87 1007.0
20260506164030 15 147 8.0 22.5 0.00 0.00 0.00 87 1007.4
20260506163526 15 219 3.2 16.1 0.00 0.00 0.00 87 1007.3
20260506163022 15 201 9.7 19.3 0.00 0.00 0.00 86 1007.3
20260506162518 15 251 8.0 14.5 0.00 0.00 0.00 88 1007.6
20260506162015 15 231 6.4 20.9 0.00 0.00 0.00 87 1007.7
20260506161513 15 293 16.1 25.7 0.00 0.00 0.00 86 1007.9
20260506161009 15 178 11.3 20.9 0.00 0.00 0.00 87 1007.7
20260506160507 15 233 4.8 19.3 0.00 0.00 0.00 88 1007.8
20260506160004 14 229 6.4 17.7 0.00 0.00 0.00 88 1007.8
20260506155503 15 345 4.8 8.0 0.00 0.00 0.00 88 1007.8
20260506153634 13 132 3.2 24.1 0.00 0.00 0.00 89 1007.7
20260506153131 15 56 6.4 14.5 0.00 0.00 0.00 87 1007.7
20260506152628 15 277 8.0 14.5 0.00 0.00 0.00 87 1007.6
20260506152126 14 225 8.0 14.5 0.00 0.00 0.00 87 1007.4
20260506151624 15 284 4.8 11.3 0.00 0.00 0.00 88 1007.3
20260506151121 15 164 8.0 25.7 0.00 0.00 0.00 87 1007.4
20260506150617 15 302 4.8 16.1 0.00 0.00 0.00 87 1007.3
20260506150114 15 70 1.6 22.5 0.00 0.00 0.00 87 1007.3
20260506145611 15 205 4.8 22.5 0.00 0.00 0.00 86 1007.6
20260506145108 15 113 6.4 19.3 0.00 0.00 0.00 88 1007.8
20260506144605 14 228 3.2 16.1 0.00 0.00 0.00 89 1007.9
20260506144102 13 300 3.2 16.1 0.00 0.00 0.00 90 1008.0
20260506143600 14 281 4.8 16.1 0.00 0.00 0.00 89 1008.1
20260506143058 14 217 8.0 12.9 0.00 0.00 0.00 89 1008.1
20260506142555 14 215 8.0 20.9 0.00 0.00 0.00 89 1008.0
20260506142053 13 98 6.4 24.1 0.00 0.00 0.00 89 1007.9
20260506141551 13 345 4.8 32.2 0.00 0.00 0.00 89 1008.4
20260506141049 14 195 4.8 16.1 0.00 0.00 0.00 88 1008.3
20260506140546 14 275 6.4 6.4 0.00 0.00 0.00 88 1008.2
20260506140044 14 254 0.0 6.4 0.00 0.00 0.00 88 1008.0
20260506135541 14 289 3.2 17.7 0.00 0.00 0.00 88 1008.0
20260506135037 15 264 3.2 8.0 0.00 0.00 0.00 87 1007.8